Miscellaneous Local Product
Issued by NWS Hastings, NE

Home | Current Version | Previous Version | Graphics & Text | Print | Product List | Glossary On
Versions: 1 2 3 4 5 6 7 8 9 10 11 12 13 14 15 16 17 18 19 20 21 22 23 24 25 26 27 28 29 30 31 32 33 34 35 36 37 38 39 40 41 42 43 44 45 46 47 48 49 50
000
AXUS43 KGID 021502
MISGRI

GID CWA HOURLY WEATHER ROUNDUP
NATIONAL WEATHER SERVICE HASTINGS NE
1000 AM CDT SUN AUG 02 2015

NOTE: "FAIR" INDICATES FEW OR NO CLOUDS BELOW 12,000 FEET WITH NO
SIGNIFICANT WEATHER AND/OR OBSTRUCTIONS TO VISIBILITY.

...SOUTH CENTRAL NEBRASKA...

CITY           SKY/WX    TMP DP  RH WIND       PRES   REMARKS
GRAND ISLAND   SUNNY     83  69  62 SW12      29.90F
HASTINGS       SUNNY     79  70  74 SW8       29.92S
KEARNEY        SUNNY     81  66  61 W8        29.93R
ORD            SUNNY     81  66  60 W8        29.88S
YORK           SUNNY     79  73  83 SW12      29.88F
AURORA         SUNNY     80  73  78 SW9       29.89S
LEXINGTON      SUNNY     80  68  66 CALM      29.95R
HOLDREGE       SUNNY     81  68  64 SW5       29.94S
HEBRON         SUNNY     81  69  67 SW9G16    29.90F

...NEBRASKA PANHANDLE...

CITY           SKY/WX    TMP DP  RH WIND       PRES   REMARKS
CHADRON        SUNNY     77  58  51 SW7       29.98S
ALLIANCE       SUNNY     75  59  57 N9        30.01
SCOTTSBLUFF    SUNNY     73  58  59 CALM      30.02S
SIDNEY         SUNNY     79  58  48 W7        30.04S

...WESTERN AND NORTH CENTRAL NEBRASKA...

CITY           SKY/WX    TMP DP  RH WIND       PRES   REMARKS
VALENTINE      NOT AVBL
AINSWORTH      SUNNY     79  63  57 W9        29.91S
ONEILL         SUNNY     82  65  56 W8        29.88R
BROKEN BOW     SUNNY     82  66  58 W6        29.93S
IMPERIAL       SUNNY     78  64  61 CALM      29.99R
NORTH PLATTE   SUNNY     76  63  64 CALM      29.95F
MCCOOK         SUNNY     81  67  62 SW6       29.95F

...EASTERN NEBRASKA...

CITY           SKY/WX    TMP DP  RH WIND       PRES   REMARKS
NORFOLK        SUNNY     78  65  63 SW7       29.85F
TEKAMAH        SUNNY     81  71  71 SW13      29.82S
COLUMBUS       SUNNY     81  66  61 W6        29.87S
ALBION         SUNNY     78  64  62 CALM      29.88R
OMAHA EPPLEY   MOSUNNY   84  71  65 SW8       29.85S
MILLARD        SUNNY     83  72  70 SW8       29.85F
LINCOLN        SUNNY     84  71  65 SW13      29.88F
NEBRASKA CITY  PTSUNNY   79  74  85 SW7       29.89S
BEATRICE       MOSUNNY   81  72  74 SW9       29.89S
FALLS CITY     MOSUNNY   81  73  76 W8        29.91R

...NORTHERN KANSAS...

CITY           SKY/WX    TMP DP  RH WIND       PRES   REMARKS
GOODLAND       SUNNY     82  67  60 S7        30.01F
HILL CITY      MOSUNNY   82  71  69 SW7       29.94F
NORTON         SUNNY     81  66  61 S7        29.93F
PHILLIPSBURG   SUNNY     84  72  65 S5        29.93S
SMITH CENTER   SUNNY     81  68  65 SW6       29.93F
HAYS           SUNNY     82  66  57 SW7       29.95S
RUSSELL        SUNNY     82  70  66 SW9       29.94S
CONCORDIA      SUNNY     83  70  64 SW13      29.92S
SALINA         SUNNY     85  69  58 S15       29.93F
TOPEKA         SUNNY     83  70  64 SW9       29.92F



USA.gov is the U.S. government's official web portal to all federal, state and local government web resources and services.